Regional Weather Roundup
Issued by NWS

Home | Current Version | Previous Version | Text Only | Print | Product List | Glossary On
Versions: 1 2 3 4 5 6 7 8 9 10 11 12 13 14 15 16 17 18 19 20 21 22 23 24 25 26 27 28 29 30 31 32 33 34 35 36 37 38 39 40 41 42 43 44 45 46 47 48 49 50
000
ASUS44 KEWX 211302
RWRTX
SOUTH TEXAS REGIONAL WEATHER ROUNDUP
NATIONAL WEATHER SERVICE AUSTIN/SAN ANTONIO TX
800 AM CDT SUN SEP 21 2014

NOTE: "FAIR" INDICATED FEW OR NO CLOUDS BELOW 12,000 FEET WITH NO
SIGNIFICANT WEATHER AND/OR OBSTRUCTIONS TO VISIBILITY.

* - THESE STATIONS ARE NOT NWS OR FAA STATIONS...AND ARE NOT SUBJECT
    TO NWS AND FAA QUALITY CONTROL.

TXZ171-172-183>190-211400-
TEXAS HILL COUNTRY AND EDWARDS PLATEAU

CITY           SKY/WX    TMP DP  RH WIND       PRES   REMARKS
JUNCTION       CLOUDY    72  69  90 CALM      30.11R
*LLANO         CLEAR     72  72 100 CALM      30.12R
BURNET         PTCLDY    72  69  90 CALM      30.11R
*HORSESHOE BAY CLEAR     70  70 100 CALM      30.08R FOG
*KERRVILLE     CLOUDY    72  70  94 CALM      30.10R
*FREDERICKSBRG MOCLDY    71  69  96 CALM      30.10R
*ROCKSPRINGS   MOCLDY    70  70 100 CALM      30.12R
*BOERNE STAGE  CLOUDY    72  68  88 CALM      30.09R
*CASTROVILLE   CLOUDY    75  72  89 CALM      30.06R
HONDO          CLOUDY    74  71  91 NE6       30.07R
*UVALDE        PTCLDY    73  72  97 E3        30.06R
DEL RIO        MOCLDY    76  72  87 E8        30.03R
LAUGHLIN AFB   NOT AVBL
CARRIZO SPRGS  CLOUDY    72  72 100 CALM      30.01R FOG
$$

TXZ173-191>194-202-209-217>225-228-211400-
CENTRAL AND SOUTH CENTRAL TEXAS

CITY           SKY/WX    TMP DP  RH WIND       PRES   REMARKS
GEORGETOWN     MOCLDY    72  70  94 CALM      30.08R
AUSTIN/BERGSTM PTCLDY    72  71  97 NE3       30.06R
AUSTIN/MABRY   MOCLDY    75  72  90 NE3       30.07R
*AUSTIN/EXEC   MOCLDY    72  72 100 N3        30.07R
*LAGO VISTA    CLEAR     72  70  93 NE3       30.10R
SAN MARCOS     PTCLDY    73  68  83 N6        30.06R HAZE
NEW BRAUNFELS  CLEAR     74  72  93 NE7       30.04R
RANDOLPH AFB   CLEAR     74  72  93 NE5       30.05R
PT SAN ANTONIO CLEAR     76  72  88 NE8       30.03R
SAN ANTONIO    PTCLDY    75  72  90 NE5       30.05R
STINSON FIELD  CLEAR     76  72  87 NE6       30.02R
*PLEASANTON    MOCLDY    75  73  92 NE3       30.03R
*LA GRANGE     CLEAR     74  73  96 CALM      30.03R
*GIDDINGS      CLEAR     71  69  95 CALM      30.08R
*GONZALES      CLEAR     74  73  97 NE7       30.03R
$$

TXZ163>164-176>182-195>201-210>213-226-227-235-211400-
SOUTHEAST TEXAS

CITY           SKY/WX    TMP DP  RH WIND       PRES   REMARKS
COLLEGE STN    CLEAR     73  69  87 NE3       30.05R
*BRYAN         CLEAR    N/A N/A N/A CALM      30.05R
*CALDWELL      CLEAR     70  70 100 CALM      30.08R
*CROCKETT      CLEAR     68  68 100 NE3       30.08R FOG
*BRENHAM       CLEAR     73  72  95 CALM      30.05R
HUNTSVILLE     CLEAR     68  65  90 CALM      30.05R
CONROE         SUNNY     69  68  96 CALM      30.05R
HOUSTON BUSH   MOSUNNY   74  71  91 N5        30.03R
HOUSTON HOBBY  SUNNY     76  73  91 NE6       30.02R
*HOUSTON SW AP SUNNY     66  65  98 CALM      30.02R
PEARLAND       SUNNY     77  73  87 NE5       30.03R
HOUSTON HOOKS  CLEAR     73  71  93 CALM      30.04R
ELLINGTON FLD  NOT AVBL
SUGAR LAND     CLEAR     76  73  91 NE8       30.02R
*HOUSTON EXEC  CLEAR     73  73 100 N7        30.04R
*CLEVELAND MUN SUNNY     69  69  99 CALM      30.05R FOG
*WHARTON       CLEAR     74  73  96 NE5       30.02R
$$

TXZ214>216-236>238-211400-
THE UPPER TEXAS COAST

CITY           SKY/WX    TMP DP  RH WIND       PRES   REMARKS
*ORANGE        SUNNY    N/A N/A N/A CALM      30.04R HAZE
PORT ARTHUR    SUNNY     75  71  87 NE5       30.02R
GALVESTON      MOSUNNY   80  76  87 NE8       30.01R
ANGLETON       SUNNY     75  74  96 N6        30.01R
*BAY CITY      CLEAR    N/A N/A N/A NE5       30.00R
PALACIOS       CLEAR     76  74  93 NE12      29.98R
$$

TXZ229>234-239>247-211400-
TEXAS COASTAL BEND AND RIO GRANDE PLAINS

CITY           SKY/WX    TMP DP  RH WIND       PRES   REMARKS
VICTORIA       CLEAR     77  75  93 NE9       30.00R
*BEEVILLE      PTCLDY    76  75  99 NE7       30.00R
ROCKPORT       LGT RAIN  78  74  87 NE12      29.96R
*PORT ARANSAS  CLOUDY    77  75  93 E9        29.96R
*PORT LAVACA   CLEAR     76  74  94 NE10      29.99R
*INGLESIDE     HVY RAIN  79  76  91 NE12G25   29.96R VSB 1/2
CORPUS CHRISTI RAIN      77  74  90 NE10      29.96R
CORPUS NAS     CLOUDY    79  32  18 NE15      29.95R
*ROBSTOWN      DRIZZLE   75  73  94 NE5       29.97
ALICE          LGT RAIN  76  75  97 N5        29.97R
KINGSVILLE NAS MOCLDY    77  76  96 NE8       29.97R
COTULLA        PTCLDY    76  73  91 NE6       30.02R
*FAITH RANCH   CLOUDY    75  73  94 E5        30.02R
LAREDO         CLOUDY    76  76 100 NE9       30.02R FOG
$$

TXZ248>255-211400-
DEEP SOUTH TEXAS

CITY           SKY/WX    TMP DP  RH WIND       PRES   REMARKS
BROWNSVILLE    PTCLDY    77  74  90 NW5       29.94R
PORT ISABEL    CLEAR     78  75  90 NW6       29.94R FOG
*SOUTH PADRE   PTCLDY    81  77  89 NW5       29.93R
HARLINGEN      PTCLDY    75  75 100 NW3       29.94R
*HEBBRONVILLE  FOG       75  74  96 N7        30.00R VSB 3/4
MCALLEN        PTCLDY    78  76  93 N6        29.96R
*WESLACO       PTCLDY    76  73  93 CALM      29.95R FOG
FALFURRIAS     CLOUDY   N/A N/A N/A N5        29.96R
EDINBURG       CLEAR     77  74  91 N5        29.96R FOG
*ZAPATA        CLEAR     75  74  98 CALM      29.98R FOG
$$

TXZ213>215-236>238-242>244-246-247-251-254-255-211400-
CMAN STATIONS

STATION/POSITION TIME  TEMP    WIND        PRES    WAVE
                       AIR SEA DIR/SP/G            HT/PER
                 (UTC) (F)     (DEG/KT/KT) (MB)    (FT/S)
SABINE PASS      1200   75 82   50/  7/  9 1016.2
SEA RIM ST PARK  1200   74      50/  5/  6 1016.3
NORTH JETTY/GLS  1200   79 83   80/ 12/ 14   N/A
EAGLE POINT      1200   79 81   80/ 13/ 15 1015.9
MORGANS POINT    1200   75      50/  6/  7 1015.9
MISSION/ARANSAS  1200           40/ 14     1015.0
PORT O`CONNOR    1200           40/ 15/ 17   N/A
PORT ARANSAS     1200   80 84   90/ 18/ 20 1014.2
MALAQUITE BEACH  1200   82 85   60/ 16/ 20 1013.1
BAFFIN BAY       1200   78 83  360/  8/ 10 1013.8
PORT ISABEL      1200   79 85   CALM  /  2 1013.6
$$

GMZ080-GMZ150>470-211400-
OFFSHORE BUOY REPORTS

STATION/POSITION TIME  TEMP    WIND        PRES    WAVE
                       AIR SEA DIR/SP/G            HT/PER
                 (UTC) (F)     (DEG/KT/KT) (MB)    (FT/S)
20 E GALVESTON   1300   82 83   80/ 16/ 19 1015.2    4/ 6
90 E PT ARANSAS  1300   83 85   60/ 17/ 19 1014.0    6/ 7
35 NE PT MANSFLD 1200   83 84   40/  2/  4 1012.4    4/ 6
200 E PT ISABEL  1200   83 85  160/  4/  4 1012.4    3/ 8
$$



USA.gov is the U.S. government's official web portal to all federal, state and local government web resources and services.